RYR2854 EBCI-LZIB

Flight info

Callsign RYR2854
Flight time 1h 24m
Altitude 39000
Route SOPOK Y863 OGLOR DCT EMGOD DCT BOMBI DCT LOHRE L984 KOMIB DCT OKG DCT ODNEM A4 BERVA
Aircraft B738/M-SDE3FGILRWY/SB1

Departure

Time 2026-04-27 13:35
Airport Brussels South Charleroi Airport (EBCI)

Arrival

Time 2026-04-27 15:00
Airport M. R. Štefánik Airport (LZIB)
Time Latitude Longitude Altitude Speed Heading
2026-04-27 12:59 50.46700 4.46522 573 ft 0 kts 337°
2026-04-27 13:25 50.46698 4.46524 577 ft 3 kts 337°
2026-04-27 13:25 50.46677 4.46545 581 ft 4 kts 308°
2026-04-27 13:26 50.46666 4.46581 578 ft 4 kts 275°
2026-04-27 13:26 50.46669 4.46619 579 ft 2 kts 246°
2026-04-27 13:26 50.46670 4.46622 582 ft 0 kts 245°
2026-04-27 13:29 50.46665 4.46605 580 ft 4 kts 245°
2026-04-27 13:30 50.46643 4.46544 579 ft 9 kts 221°
2026-04-27 13:30 50.46573 4.46557 579 ft 13 kts 163°
2026-04-27 13:30 50.46508 4.46466 582 ft 16 kts 245°
2026-04-27 13:30 50.46458 4.46291 583 ft 19 kts 245°
2026-04-27 13:31 50.46402 4.46106 588 ft 18 kts 245°
2026-04-27 13:31 50.46351 4.45926 599 ft 18 kts 245°
2026-04-27 13:31 50.46300 4.45751 607 ft 17 kts 246°
2026-04-27 13:31 50.46252 4.45584 615 ft 17 kts 245°
2026-04-27 13:32 50.46204 4.45419 621 ft 17 kts 245°
2026-04-27 13:32 50.46155 4.45248 622 ft 17 kts 245°
2026-04-27 13:32 50.46101 4.45059 625 ft 21 kts 246°
2026-04-27 13:32 50.46038 4.44843 620 ft 23 kts 245°
2026-04-27 13:33 50.45968 4.44610 625 ft 23 kts 244°
2026-04-27 13:33 50.45896 4.44387 621 ft 23 kts 237°
2026-04-27 13:33 50.45799 4.44198 625 ft 22 kts 231°
2026-04-27 13:33 50.45702 4.44008 624 ft 18 kts 225°
2026-04-27 13:34 50.45628 4.44051 616 ft 13 kts 78°
2026-04-27 13:34 50.45664 4.44180 615 ft 12 kts 66°
2026-04-27 13:34 50.45746 4.44464 622 ft 61 kts 65°
2026-04-27 13:34 50.46022 4.45410 627 ft 128 kts 65°
2026-04-27 13:35 50.46461 4.46896 823 ft 164 kts 63°
2026-04-27 13:35 50.46973 4.48531 1576 ft 166 kts 54°
2026-04-27 13:35 50.47880 4.49599 2378 ft 175 kts 20°
2026-04-27 13:35 50.49047 4.50513 2799 ft 201 kts 43°
2026-04-27 13:36 50.49861 4.52448 3128 ft 222 kts 59°
2026-04-27 13:36 50.50707 4.54578 3559 ft 243 kts 54°
2026-04-27 13:36 50.51739 4.56809 4114 ft 260 kts 52°
2026-04-27 13:36 50.52840 4.59102 5033 ft 264 kts 53°
2026-04-27 13:37 50.53964 4.61434 5837 ft 271 kts 52°
2026-04-27 13:37 50.55130 4.63803 6695 ft 277 kts 51°
2026-04-27 13:37 50.56324 4.66218 7538 ft 282 kts 51°
2026-04-27 13:37 50.57532 4.68664 8419 ft 285 kts 51°
2026-04-27 13:38 50.58752 4.71137 9258 ft 289 kts 51°
2026-04-27 13:38 50.59993 4.73656 10095 ft 294 kts 51°
2026-04-27 13:38 50.61260 4.76235 10706 ft 306 kts 51°
2026-04-27 13:38 50.62619 4.78996 10979 ft 329 kts 51°
2026-04-27 13:39 50.64038 4.81887 11634 ft 338 kts 51°
2026-04-27 13:39 50.65406 4.84923 12425 ft 343 kts 62°
2026-04-27 13:39 50.66074 4.88548 13226 ft 349 kts 85°
2026-04-27 13:39 50.65840 4.92353 14018 ft 353 kts 105°
2026-04-27 13:40 50.65145 4.96097 14723 ft 359 kts 109°
2026-04-27 13:40 50.64366 4.99867 15443 ft 365 kts 109°
2026-04-27 13:40 50.63565 5.03701 16198 ft 370 kts 109°
2026-04-27 13:40 50.62767 5.07591 16942 ft 376 kts 108°
2026-04-27 13:41 50.61972 5.11542 17662 ft 381 kts 108°
2026-04-27 13:41 50.61173 5.15559 18376 ft 387 kts 108°
2026-04-27 13:41 50.60378 5.19570 18991 ft 392 kts 108°
2026-04-27 13:41 50.59563 5.23681 19647 ft 396 kts 108°
2026-04-27 13:42 50.58614 5.27758 20281 ft 398 kts 120°
2026-04-27 13:42 50.56927 5.31190 20909 ft 397 kts 138°
2026-04-27 13:42 50.54920 5.34179 21597 ft 399 kts 140°
2026-04-27 13:42 50.52865 5.37142 22219 ft 403 kts 141°
2026-04-27 13:43 50.50789 5.40126 22829 ft 407 kts 140°
2026-04-27 13:43 50.48697 5.43154 23444 ft 411 kts 140°
2026-04-27 13:43 50.46596 5.46216 24022 ft 414 kts 140°
2026-04-27 13:43 50.44482 5.49315 24525 ft 417 kts 140°
2026-04-27 13:44 50.42357 5.52438 25005 ft 421 kts 140°
2026-04-27 13:44 50.40208 5.55595 25482 ft 424 kts 140°
2026-04-27 13:44 50.38046 5.58769 25953 ft 428 kts 140°
2026-04-27 13:44 50.35866 5.61966 26423 ft 431 kts 141°
2026-04-27 13:45 50.33669 5.65184 26869 ft 435 kts 141°
2026-04-27 13:45 50.31451 5.68428 27311 ft 438 kts 141°
2026-04-27 13:45 50.29215 5.71693 27751 ft 441 kts 141°
2026-04-27 13:45 50.26971 5.74999 28176 ft 446 kts 137°
2026-04-27 13:46 50.25129 5.78959 28522 ft 458 kts 118°
2026-04-27 13:46 50.24065 5.83693 28947 ft 464 kts 106°
2026-04-27 13:46 50.23268 5.88600 29361 ft 468 kts 105°
2026-04-27 13:46 50.22501 5.93547 29701 ft 472 kts 105°
2026-04-27 13:47 50.21706 5.98553 30046 ft 476 kts 105°
2026-04-27 13:47 50.20878 6.03566 30389 ft 479 kts 106°
2026-04-27 13:47 50.20022 6.08609 30711 ft 481 kts 107°
2026-04-27 13:47 50.19157 6.13656 31058 ft 483 kts 105°
2026-04-27 13:48 50.18535 6.18828 31380 ft 487 kts 97°
2026-04-27 13:48 50.18391 6.24106 31705 ft 488 kts 86°
2026-04-27 13:48 50.18689 6.29386 32042 ft 489 kts 83°
2026-04-27 13:48 50.19075 6.34676 32340 ft 492 kts 83°
2026-04-27 13:49 50.19467 6.39985 32624 ft 494 kts 83°
2026-04-27 13:49 50.19835 6.45315 33012 ft 493 kts 83°
2026-04-27 13:49 50.20175 6.50628 33474 ft 491 kts 84°
2026-04-27 13:49 50.20499 6.55926 33943 ft 489 kts 84°
2026-04-27 13:50 50.20816 6.61200 34306 ft 488 kts 84°
2026-04-27 13:50 50.21040 6.66481 34605 ft 488 kts 89°
2026-04-27 13:50 50.21006 6.71772 34961 ft 487 kts 91°
2026-04-27 13:50 50.20885 6.77042 35325 ft 485 kts 92°
2026-04-27 13:51 50.20738 6.82294 35663 ft 484 kts 92°
2026-04-27 13:51 50.20597 6.87526 35987 ft 483 kts 92°
2026-04-27 13:51 50.20470 6.92770 36297 ft 482 kts 92°
2026-04-27 13:51 50.20356 6.97982 36609 ft 481 kts 92°
2026-04-27 13:52 50.20247 7.03193 36915 ft 480 kts 91°
2026-04-27 13:52 50.20141 7.08399 37223 ft 479 kts 91°
2026-04-27 13:52 50.20032 7.13582 37529 ft 478 kts 91°
2026-04-27 13:52 50.19921 7.18759 37806 ft 477 kts 91°
2026-04-27 13:53 50.19689 7.29092 38362 ft 476 kts 92°
2026-04-27 13:53 50.19540 7.34175 38635 ft 475 kts 95°
2026-04-27 13:53 50.19181 7.39303 38876 ft 474 kts 97°
2026-04-27 13:54 50.18722 7.44401 39051 ft 474 kts 98°
2026-04-27 13:54 50.18226 7.49485 39200 ft 475 kts 99°
2026-04-27 13:54 50.17723 7.54597 39195 ft 479 kts 98°
2026-04-27 13:55 50.16742 7.64881 39196 ft 479 kts 98°
2026-04-27 13:55 50.15802 7.75085 39193 ft 473 kts 98°
2026-04-27 13:56 50.14873 7.85204 39201 ft 471 kts 98°
2026-04-27 13:56 50.13938 7.95285 39212 ft 469 kts 98°
2026-04-27 13:57 50.12995 8.05334 39215 ft 469 kts 98°
2026-04-27 13:57 50.12042 8.15379 39233 ft 469 kts 98°
2026-04-27 13:58 50.11079 8.25441 39233 ft 470 kts 98°
2026-04-27 13:58 50.10104 8.35527 39240 ft 472 kts 98°
2026-04-27 13:59 50.09114 8.45675 39187 ft 475 kts 98°
2026-04-27 13:59 50.08112 8.55862 39191 ft 477 kts 98°
2026-04-27 14:00 50.07097 8.66081 39186 ft 479 kts 98°
2026-04-27 14:00 50.06070 8.76341 39186 ft 480 kts 99°
2026-04-27 14:01 50.05677 8.86684 39198 ft 479 kts 87°
2026-04-27 14:01 50.05914 8.97058 39186 ft 480 kts 86°
2026-04-27 14:02 50.06140 9.07434 39190 ft 479 kts 87°
2026-04-27 14:02 50.06305 9.17803 39199 ft 479 kts 88°
2026-04-27 14:03 50.06445 9.28155 39203 ft 478 kts 88°
2026-04-27 14:03 50.06577 9.38482 39193 ft 477 kts 88°
2026-04-27 14:04 50.06702 9.48719 39205 ft 476 kts 88°
2026-04-27 14:04 50.06814 9.59015 39196 ft 475 kts 88°
2026-04-27 14:05 50.06917 9.69277 39201 ft 474 kts 88°
2026-04-27 14:05 50.07012 9.79516 39205 ft 473 kts 88°
2026-04-27 14:06 50.07115 9.89757 39205 ft 473 kts 88°
2026-04-27 14:06 50.07215 9.99984 39204 ft 473 kts 88°
2026-04-27 14:07 50.07304 10.10212 39210 ft 473 kts 88°
2026-04-27 14:07 50.07311 10.20459 39206 ft 473 kts 89°
2026-04-27 14:08 50.07311 10.30693 39208 ft 474 kts 88°
2026-04-27 14:08 50.07362 10.40966 39209 ft 474 kts 88°
2026-04-27 14:09 50.07405 10.49501 39202 ft 475 kts 88°
2026-04-27 14:09 50.07442 10.59785 39209 ft 475 kts 88°
2026-04-27 14:10 50.07465 10.70087 39201 ft 476 kts 88°
2026-04-27 14:10 50.07477 10.80394 39202 ft 477 kts 88°
2026-04-27 14:11 50.07480 10.90719 39198 ft 477 kts 88°
2026-04-27 14:11 50.07474 11.01054 39199 ft 477 kts 88°
2026-04-27 14:12 50.07459 11.11385 39200 ft 477 kts 88°
2026-04-27 14:12 50.07435 11.21714 39192 ft 477 kts 88°
2026-04-27 14:13 50.07402 11.32037 39195 ft 477 kts 88°
2026-04-27 14:13 50.07360 11.42346 39193 ft 476 kts 88°
2026-04-27 14:14 50.07308 11.52651 39201 ft 475 kts 88°
2026-04-27 14:14 50.07248 11.62940 39201 ft 475 kts 89°
2026-04-27 14:15 50.07178 11.73198 39205 ft 474 kts 89°
2026-04-27 14:15 50.07101 11.83386 39204 ft 474 kts 89°
2026-04-27 14:16 50.07013 11.93637 39206 ft 473 kts 89°
2026-04-27 14:16 50.06917 12.03884 39206 ft 473 kts 89°
2026-04-27 14:17 50.06813 12.14121 39203 ft 473 kts 89°
2026-04-27 14:17 50.06699 12.24366 39199 ft 473 kts 89°
2026-04-27 14:18 50.06577 12.34603 39197 ft 474 kts 89°
2026-04-27 14:18 50.05673 12.44760 39191 ft 477 kts 107°
2026-04-27 14:19 50.03450 12.54489 39202 ft 478 kts 110°
2026-04-27 14:19 50.01131 12.64173 39198 ft 478 kts 109°
2026-04-27 14:20 49.98842 12.73875 39203 ft 478 kts 109°
2026-04-27 14:20 49.96576 12.83592 39200 ft 479 kts 109°
2026-04-27 14:21 49.94311 12.93318 39200 ft 479 kts 109°
2026-04-27 14:21 49.92035 13.03042 39200 ft 479 kts 109°
2026-04-27 14:22 49.89752 13.12746 39207 ft 479 kts 109°
2026-04-27 14:22 49.87458 13.22450 39209 ft 479 kts 109°
2026-04-27 14:23 49.85155 13.32144 39205 ft 479 kts 109°
2026-04-27 14:23 49.82861 13.41760 39209 ft 479 kts 109°
2026-04-27 14:24 49.80545 13.51427 39203 ft 479 kts 109°
2026-04-27 14:24 49.78221 13.61084 39202 ft 479 kts 109°
2026-04-27 14:25 49.75893 13.70715 39196 ft 478 kts 109°
2026-04-27 14:25 49.73554 13.80348 39196 ft 478 kts 109°
2026-04-27 14:26 49.71211 13.89957 39198 ft 478 kts 109°
2026-04-27 14:26 49.68859 13.99559 39195 ft 477 kts 109°
2026-04-27 14:27 49.66504 14.09130 39200 ft 477 kts 109°
2026-04-27 14:27 49.64142 14.18693 39200 ft 476 kts 109°
2026-04-27 14:28 49.61774 14.28235 39200 ft 476 kts 109°
2026-04-27 14:28 49.59398 14.37774 39200 ft 476 kts 109°
2026-04-27 14:29 49.57017 14.47287 39198 ft 476 kts 109°
2026-04-27 14:29 49.55815 14.52080 38762 ft 483 kts 109°
2026-04-27 14:29 49.54605 14.56892 38177 ft 481 kts 109°
2026-04-27 14:29 49.53412 14.61622 37641 ft 479 kts 109°
2026-04-27 14:30 49.52209 14.66381 37256 ft 474 kts 109°
2026-04-27 14:30 49.51018 14.71080 36833 ft 470 kts 109°
2026-04-27 14:30 49.49834 14.75747 36436 ft 466 kts 109°
2026-04-27 14:30 49.48659 14.80366 36043 ft 462 kts 109°
2026-04-27 14:31 49.47492 14.84948 35653 ft 459 kts 109°
2026-04-27 14:31 49.46330 14.89499 35249 ft 456 kts 109°
2026-04-27 14:31 49.45174 14.94021 34855 ft 453 kts 109°
2026-04-27 14:31 49.44022 14.98517 34461 ft 451 kts 109°
2026-04-27 14:32 49.42874 15.02987 34050 ft 449 kts 109°
2026-04-27 14:32 49.41730 15.07432 33607 ft 447 kts 109°
2026-04-27 14:32 49.40591 15.11852 33192 ft 444 kts 110°
2026-04-27 14:32 49.39458 15.16241 32799 ft 441 kts 110°
2026-04-27 14:33 49.38329 15.20601 32411 ft 438 kts 110°
2026-04-27 14:33 49.37210 15.24919 32029 ft 435 kts 110°
2026-04-27 14:33 49.36092 15.29222 31659 ft 432 kts 110°
2026-04-27 14:33 49.34980 15.33495 31275 ft 430 kts 110°
2026-04-27 14:34 49.33875 15.37734 30908 ft 427 kts 110°
2026-04-27 14:34 49.32775 15.41945 30541 ft 425 kts 110°
2026-04-27 14:34 49.31678 15.46137 30146 ft 423 kts 110°
2026-04-27 14:34 49.30585 15.50304 29724 ft 420 kts 110°
2026-04-27 14:35 49.29500 15.54435 29315 ft 417 kts 110°
2026-04-27 14:35 49.28421 15.58535 28937 ft 413 kts 110°
2026-04-27 14:35 49.27350 15.62601 28535 ft 410 kts 110°
2026-04-27 14:35 49.26287 15.66624 28167 ft 407 kts 110°
2026-04-27 14:36 49.25228 15.70630 27780 ft 404 kts 110°
2026-04-27 14:36 49.24177 15.74596 27400 ft 401 kts 111°
2026-04-27 14:36 49.23131 15.78537 27027 ft 398 kts 111°
2026-04-27 14:36 49.22091 15.82450 26659 ft 396 kts 111°
2026-04-27 14:37 49.21055 15.86337 26289 ft 394 kts 111°
2026-04-27 14:37 49.20023 15.90206 25922 ft 392 kts 111°
2026-04-27 14:37 49.18994 15.94058 25559 ft 390 kts 111°
2026-04-27 14:37 49.17970 15.97885 25197 ft 388 kts 111°
2026-04-27 14:38 49.16949 16.01694 24831 ft 387 kts 111°
2026-04-27 14:38 49.15930 16.05490 24469 ft 385 kts 111°
2026-04-27 14:38 49.14914 16.09267 24116 ft 384 kts 111°
2026-04-27 14:38 49.13899 16.13034 23730 ft 383 kts 111°
2026-04-27 14:39 49.12888 16.16783 23313 ft 381 kts 111°
2026-04-27 14:39 49.11879 16.20513 22920 ft 379 kts 111°
2026-04-27 14:39 49.10876 16.24220 22543 ft 376 kts 111°
2026-04-27 14:39 49.09892 16.27846 22191 ft 374 kts 111°
2026-04-27 14:40 49.08902 16.31493 21836 ft 371 kts 111°
2026-04-27 14:40 49.07918 16.35113 21483 ft 368 kts 111°
2026-04-27 14:40 49.06936 16.38715 21134 ft 366 kts 111°
2026-04-27 14:40 49.05962 16.42286 20788 ft 364 kts 111°
2026-04-27 14:41 49.04992 16.45835 20444 ft 361 kts 111°
2026-04-27 14:41 49.04028 16.49358 20098 ft 359 kts 111°
2026-04-27 14:41 49.03068 16.52862 19761 ft 357 kts 111°
2026-04-27 14:41 49.02112 16.56346 19419 ft 356 kts 111°
2026-04-27 14:42 49.01158 16.59818 19080 ft 354 kts 111°
2026-04-27 14:42 49.00209 16.63265 18745 ft 352 kts 111°
2026-04-27 14:42 48.99263 16.66700 18392 ft 351 kts 111°
2026-04-27 14:42 48.98320 16.70115 18018 ft 349 kts 111°
2026-04-27 14:43 48.97382 16.73509 17654 ft 347 kts 111°
2026-04-27 14:43 48.96447 16.76886 17304 ft 345 kts 111°
2026-04-27 14:43 48.95517 16.80241 16958 ft 343 kts 111°
2026-04-27 14:43 48.94593 16.83569 16628 ft 340 kts 111°
2026-04-27 14:44 48.93675 16.86871 16296 ft 338 kts 111°
2026-04-27 14:44 48.92760 16.90156 15976 ft 336 kts 111°
2026-04-27 14:44 48.91850 16.93420 15644 ft 335 kts 112°
2026-04-27 14:44 48.90943 16.96674 15319 ft 333 kts 112°
2026-04-27 14:45 48.90038 16.99910 14988 ft 332 kts 112°
2026-04-27 14:45 48.89138 17.03130 14670 ft 331 kts 112°
2026-04-27 14:45 48.88237 17.06346 14337 ft 330 kts 112°
2026-04-27 14:45 48.87338 17.09551 14001 ft 329 kts 112°
2026-04-27 14:46 48.86441 17.12741 13648 ft 328 kts 112°
2026-04-27 14:46 48.85532 17.15908 13295 ft 327 kts 116°
2026-04-27 14:46 48.84246 17.18735 12842 ft 328 kts 133°
2026-04-27 14:46 48.82665 17.21232 12474 ft 327 kts 135°
2026-04-27 14:47 48.81070 17.23683 12136 ft 326 kts 135°
2026-04-27 14:47 48.79487 17.26132 11794 ft 324 kts 135°
2026-04-27 14:47 48.77923 17.28579 11517 ft 320 kts 134°
2026-04-27 14:47 48.76408 17.30971 11435 ft 310 kts 134°
2026-04-27 14:48 48.74927 17.33319 11184 ft 307 kts 134°
2026-04-27 14:48 48.71992 17.37972 10594 ft 304 kts 134°
2026-04-27 14:48 48.70538 17.40279 10310 ft 302 kts 134°
2026-04-27 14:49 48.69108 17.42544 10034 ft 301 kts 134°
2026-04-27 14:49 48.67666 17.44828 9718 ft 299 kts 134°
2026-04-27 14:49 48.66217 17.47122 9162 ft 301 kts 134°
2026-04-27 14:49 48.64789 17.49376 8823 ft 292 kts 134°
2026-04-27 14:50 48.63400 17.51568 8514 ft 285 kts 134°
2026-04-27 14:50 48.61822 17.53328 8193 ft 282 kts 159°
2026-04-27 14:50 48.59933 17.53908 7945 ft 276 kts 182°
2026-04-27 14:50 48.58029 17.53714 7690 ft 274 kts 187°
2026-04-27 14:51 48.57518 17.53642 7597 ft 274 kts 187°
2026-04-27 14:51 48.55612 17.53366 7316 ft 273 kts 187°
2026-04-27 14:51 48.54362 17.53186 7128 ft 273 kts 187°
2026-04-27 14:52 48.51848 17.52837 6745 ft 274 kts 186°
2026-04-27 14:52 48.49949 17.52584 6446 ft 274 kts 186°
2026-04-27 14:52 48.48050 17.52337 6133 ft 274 kts 186°
2026-04-27 14:52 48.46153 17.52093 5840 ft 272 kts 186°
2026-04-27 14:53 48.44272 17.51852 5580 ft 271 kts 186°
2026-04-27 14:53 48.42397 17.51612 5300 ft 269 kts 186°
2026-04-27 14:53 48.40540 17.51373 5054 ft 267 kts 185°
2026-04-27 14:53 48.38704 17.51127 4805 ft 264 kts 188°
2026-04-27 14:54 48.37032 17.50119 4560 ft 259 kts 217°
2026-04-27 14:54 48.35693 17.48339 4338 ft 256 kts 225°
2026-04-27 14:54 48.34443 17.46450 4081 ft 253 kts 225°
2026-04-27 14:54 48.33221 17.44643 4031 ft 239 kts 225°
2026-04-27 14:55 48.32065 17.42970 3919 ft 223 kts 224°
2026-04-27 14:55 48.30981 17.41410 3750 ft 211 kts 224°
2026-04-27 14:55 48.29913 17.39873 3353 ft 210 kts 224°
2026-04-27 14:55 48.28874 17.38379 3104 ft 203 kts 224°
2026-04-27 14:56 48.27874 17.36940 2903 ft 195 kts 224°
2026-04-27 14:56 48.26910 17.35551 2715 ft 189 kts 224°
2026-04-27 14:56 48.25979 17.34210 2551 ft 181 kts 224°
2026-04-27 14:56 48.25095 17.32938 2413 ft 172 kts 224°
2026-04-27 14:57 48.24531 17.32124 2263 ft 168 kts 224°
2026-04-27 14:57 48.23719 17.30953 2091 ft 154 kts 224°
2026-04-27 14:57 48.22966 17.29867 1847 ft 147 kts 224°
2026-04-27 14:57 48.21989 17.28458 1593 ft 149 kts 224°
2026-04-27 14:58 48.21483 17.27730 1456 ft 149 kts 224°
2026-04-27 14:58 48.20514 17.26330 1147 ft 144 kts 224°
2026-04-27 14:58 48.20031 17.25626 1016 ft 143 kts 224°
2026-04-27 14:58 48.19323 17.24608 827 ft 140 kts 223°
2026-04-27 14:59 48.18621 17.23600 662 ft 140 kts 223°
2026-04-27 14:59 48.17927 17.22603 478 ft 137 kts 223°
2026-04-27 14:59 48.17281 17.21678 427 ft 112 kts 224°
2026-04-27 14:59 48.16827 17.21024 420 ft 69 kts 224°
2026-04-27 15:00 48.16600 17.20699 432 ft 21 kts 223°
2026-04-27 15:00 48.16588 17.20549 426 ft 16 kts 311°
2026-04-27 15:00 48.16669 17.20433 426 ft 16 kts 316°
2026-04-27 15:00 48.16739 17.20320 428 ft 13 kts 313°
2026-04-27 15:01 48.16797 17.20231 422 ft 9 kts 315°
2026-04-27 15:01 48.16842 17.20164 427 ft 9 kts 315°
2026-04-27 15:01 48.16857 17.20097 431 ft 6 kts 300°
2026-04-27 15:01 48.16881 17.20057 431 ft 3 kts 314°
2026-04-27 15:02 48.16886 17.20048 421 ft 0 kts 314°